"Pseudo-MPEC" for P11Cmyc

Created 2022 Dec 19 9:22:15 UT using Find_Orb

Click here for an explanation of pseudo-MPECs

 
 Astrometry: 
     P11Cmyc* C2022 12 01g'\ixTe[wK-CLg,SP@?9u[ZL#q_OMsiUV2-dxha#v_O=k(neH-;]F51
     P11Cmyc  C2022 12 01BA`9Zio-b9rKI7#8RhAstrometrykU+68Sredacted;:a=clickwF51
     P11Cmyc  C2022 12 01]87Pryhere%B8Bok`A]8%*11tIdvc%form:+Ql#1l].^%#J=xbUgF51
     P11Cmyc  C2022 12 0191R4explanation5qdxv2m9=D_uV+2jkulo8DWGDy;VQ)EHmCy%jF51

Station data:
(F51) Pan-STARRS 1, Haleakala  (N20.707234 W156.255910)  US/Hawaii.
   Observers J. Bulger, T. Lowe, A. Schultz, M. Willman. Measurers K.
   Chambers, S. Chastel, T. de Boer, L. Denneau, J. Fairlamb, H. Flewelling,
   M. Huber, C.-C. Lin, E. Magnier, Y. Ramanjooloo, R. Wainscoat, R. Weryk.
   1.8-m Ritchey-Chrétien + CCD.

Orbital elements:  P11Cmyc
   Perihelion 2022 Aug 12.04176 +/- 97.6 TT =  1:00:07 (JD 2459803.54176)
Epoch 2022 Dec  2.0 TT = JDT 2459915.5   Earth MOID: 0.3492   Ma: 0.0250
M  46.50709957 +/- 100              (J2000 ecliptic)             AutoNEOCP
n   0.41539683 +/- 0.607            Peri.  252.30002 +/- 90
a   1.77893711 +/- 1.73             Node   133.69562 +/- 28
e   0.3233051 +/- 0.233             Incl.   22.18455 +/- 42
P   2.37/866.62d           H 19.62  G  0.15   U 12.4  SR
q 1.20379764 +/- 0.665    Q 2.35407658 +/- 32.1
From 4 observations 2022 Dec. 1 (46.4 min); mean residual 0".07
Residuals in arcseconds: 
221201 F51  .05-  .02+    221201 F51  .16+  .02+    
221201 F51  .01-  .03-    221201 F51  .12-  .00     

Ephemerides (geocentric):
Date (UTC) HH   RA             Dec           delta  r     elong  mag " sig PA
---- --------  ------------   ------------  ------ ------ -----  --- --------
2022 12 19 09  09 57 18.068   +00 07 39.34  .90402 1.5942 115.1 21.9  68d 178
2022 12 19 10  09 57 18.879   +00 08 09.34  .90380 1.5944 115.2 21.9  68d 178
2022 12 19 11  09 57 19.686   +00 08 39.38  .90358 1.5946 115.2 21.9  68d 178
2022 12 19 12  09 57 20.488   +00 09 09.47  .90336 1.5948 115.3 21.9  68d 178
2022 12 19 13  09 57 21.285   +00 09 39.62  .90314 1.5949 115.3 21.9  68d 178
2022 12 19 14  09 57 22.077   +00 10 09.82  .90292 1.5951 115.4 21.9  68d 178
2022 12 19 15  09 57 22.865   +00 10 40.06  .90270 1.5953 115.4 21.9  69d 178
2022 12 19 16  09 57 23.648   +00 11 10.37  .90248 1.5955 115.4 21.9  69d 178
2022 12 19 17  09 57 24.426   +00 11 40.72  .90226 1.5957 115.5 21.9  69d 178
2022 12 19 18  09 57 25.200   +00 12 11.12  .90203 1.5959 115.5 21.9  69d 178
2022 12 19 19  09 57 25.969   +00 12 41.58  .90181 1.5960 115.6 21.9  69d 178
2022 12 19 20  09 57 26.733   +00 13 12.09  .90159 1.5962 115.6 21.9  69d 178
2022 12 19 21  09 57 27.493   +00 13 42.65  .90137 1.5964 115.7 21.9  69d 178
2022 12 19 22  09 57 28.248   +00 14 13.26  .90115 1.5966 115.7 21.9  69d 178
2022 12 19 23  09 57 28.998   +00 14 43.92  .90093 1.5968 115.7 21.9  69d 178
2022 12 20 00  09 57 29.744   +00 15 14.64  .90071 1.5970 115.8 21.9  69d 178
2022 12 20 01  09 57 30.484   +00 15 45.41  .90049 1.5971 115.8 21.9  69d 178
2022 12 20 02  09 57 31.221   +00 16 16.23  .90027 1.5973 115.9 21.9  69d 178
2022 12 20 03  09 57 31.952   +00 16 47.10  .90005 1.5975 115.9 21.9  69d 178
2022 12 20 04  09 57 32.679   +00 17 18.02  .89983 1.5977 116.0 21.9  69d 178
2022 12 20 05  09 57 33.401   +00 17 49.00  .89961 1.5979 116.0 21.9  69d 178
2022 12 20 06  09 57 34.118   +00 18 20.03  .89939 1.5981 116.0 21.9  70d 178
2022 12 20 07  09 57 34.831   +00 18 51.11  .89917 1.5982 116.1 21.9  70d 178
2022 12 20 08  09 57 35.539   +00 19 22.24  .89895 1.5984 116.1 21.9  70d 178
2022 12 20 09  09 57 36.242   +00 19 53.43  .89873 1.5986 116.2 21.9  70d 178
2022 12 20 10  09 57 36.940   +00 20 24.66  .89851 1.5988 116.2 21.9  70d 178
2022 12 20 11  09 57 37.634   +00 20 55.95  .89830 1.5990 116.2 21.9  70d 178
2022 12 20 12  09 57 38.323   +00 21 27.30  .89808 1.5992 116.3 21.9  70d 178
2022 12 20 13  09 57 39.007   +00 21 58.69  .89786 1.5994 116.3 21.9  70d 178
2022 12 20 14  09 57 39.687   +00 22 30.14  .89764 1.5995 116.4 21.9  70d 178
2022 12 20 15  09 57 40.362   +00 23 01.64  .89742 1.5997 116.4 21.9  70d 178
2022 12 20 16  09 57 41.032   +00 23 33.19  .89720 1.5999 116.5 21.9  70d 178
2022 12 20 17  09 57 41.697   +00 24 04.80  .89698 1.6001 116.5 21.9  70d 178
2022 12 20 18  09 57 42.358   +00 24 36.45  .89676 1.6003 116.5 21.8  70d 178
2022 12 20 19  09 57 43.014   +00 25 08.16  .89654 1.6005 116.6 21.8  70d 178
2022 12 20 20  09 57 43.665   +00 25 39.93  .89633 1.6006 116.6 21.8  70d 178
2022 12 20 21  09 57 44.311   +00 26 11.74  .89611 1.6008 116.7 21.8  70d 178
2022 12 20 22  09 57 44.953   +00 26 43.61  .89589 1.6010 116.7 21.8  70d 178
2022 12 20 23  09 57 45.590   +00 27 15.53  .89567 1.6012 116.8 21.8  70d 178
2022 12 21 00  09 57 46.222   +00 27 47.51  .89545 1.6014 116.8 21.8  70d 178
2022 12 21 01  09 57 46.850   +00 28 19.53  .89523 1.6016 116.8 21.8  70d 178
2022 12 21 02  09 57 47.472   +00 28 51.61  .89502 1.6017 116.9 21.8  71d 178
2022 12 21 03  09 57 48.090   +00 29 23.74  .89480 1.6019 116.9 21.8  71d 178
2022 12 21 04  09 57 48.703   +00 29 55.93  .89458 1.6021 117.0 21.8  71d 178
2022 12 21 05  09 57 49.312   +00 30 28.17  .89436 1.6023 117.0 21.8  71d 178
2022 12 21 06  09 57 49.915   +00 31 00.46  .89415 1.6025 117.1 21.8  71d 178
2022 12 21 07  09 57 50.514   +00 31 32.80  .89393 1.6027 117.1 21.8  71d 178
2022 12 21 08  09 57 51.108   +00 32 05.20  .89371 1.6028 117.1 21.8  71d 178